Location: Six Mile Lake
(44.9000°N, 79.7170°W)
Time: 14:12:33
(UTC-04:00)

ZACube-1 - Pass Details

Date: 06 July 2022
Orbit: 582 x 661 km, 97.6° (Epoch: 09 August)

Event Time Altitude Azimuth Distance (km) Brightness Sun altitude
Rises 04:32:35 0° 22° (NNE) 2,973 ? -9.9°
Reaches altitude 10° 04:35:01 10° 32° (NNE) 2,067 ? -9.6°
Maximum altitude 04:39:03 31° 96° (E) 1,142 ? -9.1°
Drops below altitude 10° 04:43:06 10° 159° (SSE) 2,072 ? -8.6°
Sets 04:45:31 0° 169° (S) 2,980 ? -8.3°
